RH
94 90 91 86 79 83 79 85 84 76 80 74 71 65 60 60 55 54 54 54 56 58 58 58 60 59 61
95 94 85 86 83 84 70 67 80 84 80 73 70 65 62 61 57 56 57 56 58 59 59 61 62 61 62
94 89 82 80 83 80 77 81 79 84 79 73 68 66 66 63 60 58 58 59 60 58 62 64 64 62 64
92 91 87 80 84 86 85 83 88 75 82 79 74 76 70 67 64 64 60 62 58 56 60 66 64 63 64
92 95 94 89 86 88 88 91 89 89 93 93 92 84 78 66 74 69 61 63 59 56 59 65 63 63 64
88 90 89 88 90 88 94 96 98 93 95 93 80 78 75 82 69 67 61 56 56 56 59 64 64 63 63
84 78 84 86 86 94 94 93 96 94 93 89 76 74 70 56 62 60 58 57 55 56 60 61 62 63 64
82 88 90 91 88 87 90 94 92 91 85 81 74 71 64 64 59 57 56 56 55 56 58 62 61 63 65
97 96 96 93 93 93 97 95 92 86 80 70 68 64 64 65 67 61 59 54 55 58 59 58 62 63 73
99 98 96 96 91 87 88 92 88 84 75 72 75 71 70 75 73 75 71 59 58 58 60 61 62 77 83
95 96 95 95 91 85 82 82 89 88 74 82 93 91 90 89 79 78 77 72 73 74 66 65 66 66 77
92 92 92 90 89 88 85 82 82 80 72 74 94 92 95 96 87 81 81 81 85 77 75 70 69 67 67
92 92 92 90 88 91 88 85 87 79 72 77 90 91 92 95 95 97 87 84 80 87 85 77 74 74 79
91 91 89 94 96 95 95 90 92 91 81 88 89 89 99 98 97 98 97 97 95 91 86 74 67 68 72
92 94 95 97 97 97 97 94 93 95 98 98 90 90 96 94 97 98 98 98 94 95 86 84 70 80 76
97 95 95 97 96 97 96 93 96 97 99 99 97 94 90 86 85 97 98 99 97 94 96 100 90 75 78
97 97 96 97 97 97 95 97 98 97 99 98 99 98 96 88 91 72 96 97 97 98 98 99 98 81 72
Wind_Speed
1 3 3 4 4 4 4 5 4 8 10 14 14 12 11 10 8 8 7 6 7 8 10 10 11 9 10
3 3 4 4 3 5 4 3 4 8 13 14 14 12 11 11 10 8 7 6 6 7 9 11 11 9 11
3 2 1 2 2 2 3 1 2 7 13 14 13 11 12 12 10 9 8 7 7 7 10 11 10 10 12
3 3 2 1 2 3 2 1 2 2 4 5 10 12 12 13 11 9 8 8 8 8 10 10 9 11 13
3 3 4 3 6 4 3 3 1 2 2 2 3 3 4 8 7 8 9 10 10 9 11 10 10 12 15
4 4 6 4 4 5 4 3 2 5 4 6 4 4 3 3 7 8 9 10 11 9 11 11 12 14 15
9 11 7 8 7 6 6 5 4 2 5 4 3 4 3 3 8 9 11 11 10 8 9 10 12 13 16
7 6 5 9 10 7 7 5 4 2 3 3 2 3 1 2 6 9 9 10 7 7 7 10 13 14 16
8 9 11 15 12 9 6 7 2 3 3 3 2 2 1 1 2 8 10 6 4 4 9 10 11 13 10
4 5 7 8 16 7 9 8 4 2 4 4 3 3 1 0 1 0 1 2 2 6 8 10 10 4 5
5 3 4 4 3 3 5 6 4 2 4 4 2 2 2 1 1 0 1 2 2 4 8 9 14 13 6
5 4 5 4 3 5 5 5 5 3 8 4 3 3 3 1 1 2 1 2 1 2 3 10 13 16 17
5 3 3 5 6 6 8 10 11 8 5 3 3 3 3 2 2 1 2 1 2 2 3 5 6 5 8
4 5 6 4 4 4 4 4 5 4 6 5 5 4 2 2 3 2 2 2 1 3 5 7 6 5 6
6 6 5 5 3 3 3 3 3 3 2 2 4 4 2 4 0 2 1 2 3 3 3 7 6 5 6
5 6 6 5 5 3 3 2 3 2 3 1 2 3 4 2 5 1 2 3 3 3 2 2 6 7 6
5 5 6 5 8 5 3 2 2 3 2 2 2 3 3 1 2 5 3 2 2 3 3 3 5 11 9
Wind_Direction
177 172 171 183 178 177 184 198 219 212 174 164 165 173 189 198 217 222 244 264 283 293 304 307 306 313 319
165 185 191 215 183 169 185 188 199 213 174 173 177 185 194 211 221 233 246 267 277 291 299 304 305 314 309
160 164 131 163 124 109 154 122 205 210 189 185 189 195 209 220 227 238 249 262 267 285 297 297 300 300 305
166 151 133 219 105 144 169 134 155 181 213 193 197 206 223 227 228 238 245 248 261 276 288 288 292 299 303
163 151 159 176 191 173 160 127 149 158 175 219 205 202 223 241 225 217 244 247 263 275 293 287 288 299 305
191 187 194 183 141 167 133 142 204 182 190 228 186 212 208 202 226 237 252 260 260 273 290 283 292 302 305
196 210 184 178 154 164 174 174 174 147 172 231 193 221 200 219 235 241 251 250 265 274 276 289 296 306 304
204 193 183 170 180 189 172 118 75 102 160 204 165 213 148 214 236 240 244 259 248 264 292 301 304 307 300
192 170 160 173 151 124 143 149 148 174 184 160 169 154 171 240 262 251 252 214 216 278 304 309 306 304 302
115 138 143 163 164 165 154 171 122 139 193 155 152 150 276 271 241 9 29 246 273 310 312 301 302 286 280
118 103 94 98 111 124 163 164 135 103 174 116 133 119 125 226 259 214 211 305 322 313 307 305 309 304 288
128 124 118 110 80 72 73 75 55 114 151 107 123 146 133 49 290 344 321 302 290 285 292 304 300 300 298
134 101 89 107 107 88 79 79 71 60 61 68 121 116 110 141 171 298 343 295 278 277 287 285 287 293 302
118 106 117 118 113 101 103 92 80 66 56 77 102 119 121 147 147 234 195 268 296 289 289 290 284 267 270
138 134 133 131 112 102 105 86 103 144 113 28 60 68 88 148 236 236 262 282 260 267 303 308 299 269 281
145 154 153 149 132 117 117 123 131 133 114 104 47 31 2 322 198 213 237 229 253 273 237 288 296 310 296
159 156 148 146 147 146 127 115 110 117 96 96 90 99 71 239 271 220 198 259 285 294 214 193 258 290 302